Tracking 34223 objects as of 31-May-2026
HD Live streaming from Space Station
objects crossing your sky now

IRIDIUM 170

Track IRIDIUM 170 now!
10-day predictions
IRIDIUM 170 is classified as:


NORAD ID: 43930
Int'l Code: 2019-002J
Perigee: 659.3 km
Apogee: 662.7 km
Inclination: 86.6 °
Period: 97.8 minutes
Semi major axis: 7032 km
RCS: Unknown
Launch date: January 11, 2019
Source: United States (US)
Launch site: AIR FORCE WESTERN TEST RANGE (AFWTR)
Your satellite tracking list
Your tracking list is empty




NASA's NSSDC Master Catalog

Two Line Element Set (TLE):
1 43930U 19002J   26150.62950049  .00000542  00000-0  82123-4 0  9991
2 43930  86.6097   0.8875 0002400  91.4066 268.7426 14.72252156396678
Source of the keplerian elements: AFSPC